Date,TemperatureHighF,TemperatureAvgF,TemperatureLowF,DewpointHighF,DewpointAvgF,DewpointLowF,HumidityHigh,HumidityAvg,HumidityLow,PressureMaxIn,PressureMinIn,WindSpeedMaxMPH,WindSpeedAvgMPH,GustSpeedMaxMPH,PrecipitationSumIn
2014-1-1,79.5,74.1,71.9,51.7,8.3,-32.6,45,7,1,30.15,29.99,18,4,18,0.47
2014-1-2,85.1,74.9,66.4,67.7,25.2,-31.9,57,21,4,29.99,29.82,20,4,20,0.01
2014-1-3,71.5,62.6,57.8,50.6,22.9,-42.2,61,29,1,30.15,29.83,22,7,22,0.01
2014-1-4,73.6,69.4,58.0,50.4,18.2,-34.0,56,17,4,30.13,30.01,16,3,16,0.05
2014-1-5,80.5,74.4,67.0,47.9,9.2,-33.6,34,6,1,30.02,29.90,22,3,22,0.25
2014-1-6,82.3,71.0,56.8,64.5,25.8,-13.9,61,24,4,30.15,29.91,24,4,26,0.00
2014-1-7,57.2,52.4,47.5,41.9,30.5,-17.7,64,46,6,30.26,30.15,28,9,28,0.00
2014-1-8,70.2,61.4,49.7,0.0,-0.4,-46.7,5,0,3,30.26,30.15,22,7,22,0.09
2014-1-9,75.1,72.0,67.8,0.0,0.0,0.0,0,0,100,30.19,30.07,21,6,24,0.63
2014-1-10,79.5,74.2,68.5,20.2,-0.1,-29.7,11,0,1,30.12,30.01,20,4,24,0.06
2014-1-11,84.1,76.7,71.5,62.3,15.2,-30.1,48,10,1,30.07,29.92,18,3,25,0.02
2014-1-12,76.3,70.0,62.0,59.8,22.0,-38.3,57,21,1,30.12,29.97,18,3,18,0.00
2014-1-13,80.0,71.0,60.5,52.8,10.4,-29.9,40,7,1,30.10,29.98,16,2,17,0.01
2014-1-14,82.5,73.4,65.9,62.6,14.6,-31.1,52,11,1,29.99,29.88,20,3,20,0.00
2014-1-15,68.6,64.0,57.7,50.2,13.0,-41.9,57,15,2,29.99,29.88,16,2,16,0.01
2014-1-16,58.2,54.7,47.2,42.0,19.6,-48.7,61,28,1,30.11,29.90,25,5,25,0.01
2014-1-17,63.9,53.8,44.0,46.1,32.2,-49.7,61,46,2,30.17,30.05,11,1,11,0.00
2014-1-18,64.7,55.4,47.4,48.0,30.9,-48.3,61,42,3,30.19,30.09,17,1,17,0.01
2014-1-19,69.2,54.3,42.1,46.9,32.0,-10.4,61,44,9,30.24,30.10,16,1,16,0.00
2014-1-20,75.1,63.6,52.8,57.5,25.8,-45.2,58,27,1,30.15,29.99,18,2,18,0.00
2014-1-21,73.0,64.7,60.2,55.9,11.5,-39.0,58,13,1,30.02,29.84,21,3,21,0.00
2014-1-22,60.8,55.6,46.7,40.3,25.0,-44.9,59,34,4,30.12,29.84,22,4,24,0.00
2014-1-23,68.7,55.9,43.4,53.0,28.2,-48.9,59,37,2,30.25,30.11,15,3,15,0.00
2014-1-24,57.4,57.3,57.3,0.0,0.0,0.0,0,0,100,30.24,30.24,7,2,7,0.00
2014-1-25,75.6,62.1,49.9,58.2,20.8,-17.9,57,20,3,30.18,30.00,5,1,13,0.00
2014-1-26,78.0,68.9,53.7,57.0,27.7,-36.0,55,24,2,30.05,29.93,10,1,13,0.00
2014-1-27,82.7,70.7,58.0,63.8,22.5,-32.6,55,19,1,29.99,29.88,15,1,15,0.00
2014-1-28,81.5,70.2,59.3,62.1,12.9,-30.7,52,9,1,30.04,29.91,14,1,14,0.00
2014-1-29,73.5,66.7,62.3,0.0,0.0,0.0,0,0,100,30.04,29.93,19,4,19,0.17
2014-1-30,67.0,64.0,60.0,0.0,0.0,0.0,0,0,100,30.06,29.97,15,3,15,0.22
2014-1-31,81.4,73.5,64.9,0.0,0.0,0.0,0,0,100,30.04,29.95,14,2,15,0.05
2014-2-1,82.8,74.8,69.8,71.1,37.7,0.0,95,42,58,30.09,30.00,9,0,9,0.07
2014-2-2,80.2,75.1,68.1,71.0,69.3,66.1,97,83,66,30.11,30.01,0,0,0,0.03
2014-2-3,82.2,76.8,73.0,71.9,70.7,69.5,91,82,70,30.06,29.97,0,0,0,0.00
2014-2-4,81.2,76.8,72.8,72.5,70.6,68.3,93,82,67,30.09,30.00,0,0,0,0.03
2014-2-5,84.8,76.5,70.4,72.7,70.8,67.3,96,84,58,30.05,29.94,2,0,2,0.70
2014-2-6,83.4,76.0,70.7,73.6,70.3,67.6,98,84,61,30.06,29.97,2,0,2,0.00
2014-2-7,81.5,73.0,66.6,71.0,68.6,65.8,98,87,62,30.09,30.00,0,0,0,0.00
2014-2-8,86.0,74.7,68.0,73.0,67.8,61.9,99,82,47,30.05,29.93,0,0,0,0.00
2014-2-9,76.9,69.0,64.8,67.4,64.7,59.5,98,87,68,30.04,29.94,0,0,0,0.00
2014-2-10,79.5,70.9,63.4,67.1,64.2,61.6,95,80,62,30.04,29.94,0,0,0,0.00
2014-2-11,85.3,74.9,66.7,69.5,65.8,58.6,94,75,41,30.02,29.92,0,0,0,0.00
2014-2-12,81.8,72.4,63.5,70.2,65.7,60.9,96,80,58,29.99,29.77,0,0,0,0.55
2014-2-13,73.2,66.3,56.5,67.4,58.7,49.3,96,78,54,29.93,29.70,0,0,0,0.09
2014-2-14,71.3,59.0,48.2,52.3,45.5,37.6,91,65,30,30.04,29.91,0,0,0,0.00
2014-2-15,79.3,64.7,53.0,61.4,55.4,50.9,95,74,44,30.08,29.92,0,0,0,0.00
2014-2-16,76.2,63.5,50.0,57.7,51.1,42.5,91,67,32,30.14,30.05,0,0,0,0.00
2014-2-17,76.3,67.0,57.8,60.3,57.0,53.7,93,72,54,30.17,30.09,0,0,0,0.00
2014-2-18,78.7,68.7,58.9,64.5,59.3,53.0,96,74,45,30.18,30.10,0,0,0,0.00
2014-2-19,80.0,70.8,61.7,65.8,62.8,60.0,97,77,56,30.13,30.03,0,0,0,0.00
2014-2-20,81.3,74.7,64.4,71.1,66.8,62.7,96,77,62,30.12,30.03,0,0,0,0.00
2014-2-21,83.8,78.1,74.0,71.5,70.7,69.3,90,79,63,30.06,29.97,0,0,0,0.00
2014-2-22,85.0,76.5,68.8,73.1,69.3,66.4,98,80,55,30.07,29.94,0,0,0,0.00
2014-2-23,85.0,76.8,68.5,72.3,69.9,67.0,97,80,60,30.04,29.94,0,0,0,0.00
2014-2-24,86.5,76.9,67.4,71.5,67.8,60.7,97,75,44,29.99,29.91,0,0,0,0.00
2014-2-25,84.3,75.3,69.6,71.0,67.9,62.7,97,80,51,29.99,29.86,0,0,0,0.00
2014-2-26,85.0,74.4,65.1,69.7,65.1,60.1,98,76,45,29.92,29.71,0,0,0,0.00
2014-2-27,76.4,71.9,65.3,70.4,65.0,60.0,94,80,61,29.89,29.72,0,0,0,0.09
2014-2-28,73.2,65.6,60.8,63.2,59.3,53.8,97,81,60,30.04,29.83,0,0,0,0.10
2014-3-1,78.3,68.2,59.0,64.2,59.5,55.6,95,76,49,30.12,30.00,0,0,0,0.00
2014-3-2,79.2,70.3,61.1,64.6,61.0,58.1,96,75,51,30.15,30.03,0,0,0,0.00
2014-3-3,84.0,73.0,63.4,64.8,61.9,55.6,95,70,38,30.04,29.93,0,0,0,0.00
2014-3-4,80.2,71.7,63.4,66.2,63.6,59.8,96,77,55,30.03,29.92,0,0,0,0.00
2014-3-5,83.2,74.1,66.1,69.7,66.5,63.5,96,79,53,30.00,29.88,0,0,0,0.00
2014-3-6,87.1,73.2,65.5,72.5,67.2,61.8,97,84,48,29.95,29.75,0,0,0,0.45
2014-3-7,79.0,70.3,59.3,68.1,60.6,52.4,96,74,42,29.99,29.74,0,0,0,0.00
2014-3-8,73.1,63.1,55.3,61.7,54.7,48.8,93,75,52,30.10,29.97,0,0,0,0.00
2014-3-9,77.9,68.9,60.5,65.5,61.9,59.4,97,80,55,30.13,30.03,0,0,0,0.00
2014-3-10,82.7,71.7,62.7,63.9,61.4,56.7,94,72,42,30.08,29.92,0,0,0,0.00
2014-3-11,81.5,72.3,60.8,67.1,62.9,58.5,94,74,50,29.99,29.81,0,0,0,0.00
2014-3-12,85.5,76.3,68.0,71.3,66.7,63.2,93,74,50,29.85,29.71,0,0,0,0.00
2014-3-13,74.7,68.5,60.8,69.3,56.0,44.6,87,65,45,30.12,29.80,0,0,0,0.00
2014-3-14,72.0,65.7,56.8,57.1,52.1,45.6,81,62,47,30.21,30.10,0,0,0,0.00
2014-3-15,79.2,70.4,60.8,61.6,58.0,52.5,95,67,41,30.13,30.00,0,0,0,0.00
2014-3-16,81.7,74.9,69.5,66.2,62.4,59.4,76,65,51,30.01,29.78,0,0,0,0.00
2014-3-17,87.5,79.5,73.0,71.6,68.9,65.5,88,71,50,29.80,29.68,0,0,0,0.00
2014-3-18,79.4,73.7,67.2,72.1,64.3,56.9,95,73,53,29.97,29.64,0,0,0,0.23
2014-3-19,80.2,71.9,63.4,66.0,63.2,61.3,95,76,59,30.03,29.93,0,0,0,0.00
2014-3-20,80.7,73.8,67.3,69.7,66.9,61.9,93,79,67,30.00,29.90,0,0,0,0.00
2014-3-21,82.3,72.0,61.0,69.6,65.5,59.6,98,81,61,30.02,29.91,0,0,0,0.00
2014-3-22,81.2,76.8,72.6,72.3,69.0,63.5,94,77,63,30.04,29.92,0,0,0,0.29
2014-3-23,88.7,77.5,68.7,69.1,65.9,60.3,91,70,45,30.01,29.88,0,0,0,0.00
2014-3-24,75.1,71.1,66.0,69.9,66.9,63.7,96,87,70,30.01,29.86,0,0,0,0.31
2014-3-25,79.5,69.9,63.3,70.6,65.3,50.4,97,86,61,29.98,29.78,0,0,0,0.57
2014-3-26,67.5,61.0,54.7,54.4,48.3,38.5,83,64,49,30.21,29.97,0,0,0,0.00
2014-3-27,74.5,68.9,57.3,63.0,57.4,52.2,90,68,53,30.25,30.13,0,0,0,0.01
2014-3-28,79.3,75.3,71.9,69.8,64.5,60.6,83,69,59,30.15,30.00,0,0,0,0.00
2014-3-29,83.5,76.7,68.0,73.8,70.8,65.4,93,83,65,30.05,29.88,5,0,5,0.50
2014-3-30,75.3,70.0,61.3,67.2,57.2,41.6,93,68,31,30.02,29.85,5,0,5,0.01
2014-3-31,76.7,67.9,58.2,64.3,58.1,52.4,86,72,53,30.09,30.01,1,0,1,0.00
2014-4-1,78.2,70.1,61.1,63.8,60.6,57.8,96,74,54,30.13,30.05,1,0,1,0.00
2014-4-2,78.8,70.8,60.7,63.8,60.3,57.8,96,71,51,30.14,30.07,0,0,0,0.00
2014-4-3,80.3,73.8,66.3,65.1,62.9,60.0,87,69,56,30.11,30.02,0,0,0,0.00
2014-4-4,82.4,76.3,69.9,66.0,64.1,60.6,82,67,50,30.04,29.95,0,0,0,0.00
2014-4-5,83.8,76.0,67.5,68.8,65.6,62.2,92,72,51,30.01,29.93,0,0,0,0.00
2014-4-6,86.0,76.5,67.2,69.3,66.3,56.3,96,73,37,29.99,29.88,0,0,0,0.00
2014-4-7,88.6,80.2,74.7,75.0,70.6,66.8,89,74,49,29.94,29.82,0,0,0,0.00
2014-4-8,89.8,77.9,68.2,75.3,70.6,62.1,94,79,53,29.88,29.70,0,0,0,0.25
2014-4-9,75.8,70.0,64.3,64.5,56.7,48.3,90,65,40,30.11,29.84,0,0,0,0.00
2014-4-10,76.8,70.4,62.1,58.7,55.4,49.8,81,60,42,30.21,30.09,0,0,0,0.00
2014-4-11,79.3,71.5,63.2,69.5,63.2,58.3,93,76,56,30.19,30.07,0,0,0,0.02
2014-4-12,79.8,74.7,67.3,67.2,64.4,59.3,94,71,53,30.13,30.02,0,0,0,0.00
2014-4-13,75.6,73.5,70.4,72.1,69.0,64.5,96,86,72,30.05,29.94,0,0,0,1.70
2014-4-14,85.9,76.0,70.1,73.6,71.5,68.9,97,86,62,29.96,29.85,0,0,0,0.01
2014-4-15,88.9,78.1,71.3,74.7,72.1,69.2,96,83,55,29.88,29.77,1,0,1,0.39
2014-4-16,78.9,74.3,70.9,72.9,69.5,65.5,97,85,72,30.03,29.87,0,0,1,0.00
2014-4-17,80.5,75.9,73.2,73.1,71.7,70.0,94,87,76,30.10,29.99,1,0,1,0.38
2014-4-18,83.7,78.1,72.6,73.1,71.3,68.4,96,80,65,30.05,29.90,1,0,1,0.20
2014-4-19,87.8,77.6,68.1,73.8,69.2,61.3,96,77,51,29.94,29.81,17,0,18,0.11
2014-4-20,76.5,69.3,64.9,65.1,61.2,58.1,87,76,61,29.99,29.89,0,0,0,0.01
2014-4-21,79.0,69.9,61.6,66.5,62.6,58.9,93,79,62,30.00,29.87,0,0,0,0.00
2014-4-22,84.6,74.6,67.0,69.2,65.6,62.6,93,75,49,29.92,29.79,0,0,0,0.00
2014-4-23,86.0,74.6,64.9,70.1,65.5,62.8,93,75,48,29.91,29.82,0,0,0,0.00
2014-4-24,85.4,76.8,66.4,70.3,66.6,62.8,92,72,51,29.96,29.88,0,0,0,0.00
2014-4-25,89.8,78.0,69.4,72.2,68.2,63.3,92,73,43,29.98,29.86,0,0,0,0.00
2014-4-26,86.5,78.2,70.0,72.4,69.3,65.9,91,75,53,29.96,29.88,0,0,0,0.00
2014-4-27,87.9,80.3,71.6,72.3,67.2,57.6,94,67,38,29.98,29.89,0,0,0,0.00
2014-4-28,88.3,81.6,77.2,73.5,70.3,62.8,86,70,46,29.94,29.85,0,0,0,0.00
2014-4-29,87.8,82.0,78.0,75.2,73.2,70.3,88,75,58,29.97,29.83,0,0,0,0.00
2014-4-30,88.8,82.0,77.8,75.2,73.5,68.4,90,76,53,30.02,29.91,0,0,0,0.00
2014-5-1,87.8,81.2,76.5,75.2,72.4,68.3,89,75,58,29.99,29.89,0,0,0,0.00
2014-5-2,89.7,81.5,75.2,73.3,70.6,64.9,90,71,48,29.94,29.81,0,0,0,0.00
2014-5-3,88.2,77.3,73.6,74.5,71.4,69.6,94,83,57,29.95,29.85,0,0,0,0.16
2014-5-4,82.3,75.1,67.4,72.4,63.1,50.1,95,69,33,30.02,29.91,0,0,0,0.00
2014-5-5,83.0,75.5,67.1,67.6,63.2,57.3,91,68,43,30.02,29.93,0,0,0,0.00
2014-5-6,85.0,76.3,66.7,69.2,65.9,61.5,95,72,48,30.00,29.93,0,0,0,0.00
2014-5-7,84.8,80.1,75.1,70.0,67.6,64.4,76,66,56,30.09,29.95,0,0,0,0.00
2014-5-8,85.3,80.7,77.0,71.2,68.3,65.4,77,66,54,30.14,30.05,0,0,0,0.00
2014-5-9,85.3,80.5,77.3,70.4,68.5,65.7,74,67,56,30.14,30.04,0,0,0,0.00
2014-5-10,84.8,80.0,77.3,71.6,70.2,68.5,79,72,64,30.11,30.01,0,0,0,0.00
2014-5-11,84.2,80.2,77.6,71.8,69.0,58.7,80,69,50,30.10,30.00,0,0,0,0.00
2014-5-12,84.5,80.2,77.5,73.1,69.8,66.4,83,71,57,30.08,30.00,0,0,0,0.00
2014-5-13,84.3,79.6,75.2,75.4,72.6,70.0,90,79,69,30.02,29.93,0,0,0,0.13
2014-5-14,85.5,80.2,73.3,75.4,72.1,68.1,91,77,62,30.01,29.92,0,0,0,0.18
2014-5-15,82.8,76.7,74.3,77.5,73.7,71.3,96,91,78,29.97,29.87,13,0,13,0.57
2014-5-16,76.5,73.4,68.0,73.5,66.6,45.6,96,81,38,30.03,29.90,11,0,11,0.00
2014-5-17,81.1,73.8,63.8,63.0,59.7,55.5,83,63,47,30.06,29.99,0,0,0,0.00
2014-5-18,80.5,76.5,71.5,65.7,62.7,59.0,71,63,56,30.07,30.00,0,0,0,0.00
2014-5-19,81.5,77.5,73.9,66.7,64.2,61.0,73,64,54,30.09,30.02,0,0,0,0.00
2014-5-20,82.0,77.5,71.9,67.6,65.1,61.6,82,66,53,30.13,30.06,0,0,0,0.00
2014-5-21,81.5,77.0,72.4,65.4,63.3,58.8,76,63,50,30.12,30.06,0,0,0,0.00
2014-5-22,85.8,77.0,68.0,67.4,64.3,53.6,92,67,37,30.10,30.00,0,0,0,0.00
2014-5-23,90.5,79.8,69.7,70.6,67.8,62.7,92,69,42,30.06,29.96,0,0,0,0.00
2014-5-24,91.0,81.4,72.4,71.4,69.7,66.0,89,69,47,30.04,29.96,0,0,0,0.00
2014-5-25,87.3,80.2,72.5,73.1,70.6,65.7,92,74,50,30.08,29.97,0,0,0,0.00
2014-5-26,87.0,80.5,73.4,74.0,71.1,65.2,95,74,54,30.12,30.03,0,0,0,0.00
2014-5-27,87.0,80.8,76.0,73.2,70.8,64.0,89,73,49,30.10,29.99,0,0,0,0.00
2014-5-28,85.8,79.9,75.0,74.5,72.3,70.2,91,78,63,30.03,29.94,0,0,0,0.03
2014-5-29,81.3,76.9,71.8,76.4,72.2,68.9,93,85,76,30.01,29.91,7,0,7,0.53
2014-5-30,86.5,79.8,72.2,74.3,72.1,68.6,94,78,59,29.98,29.91,0,0,0,0.00
2014-5-31,85.5,80.7,72.9,76.0,73.1,69.9,95,78,66,29.98,29.91,15,3,15,0.34
2014-6-1,85.5,79.7,74.5,76.2,73.4,70.8,94,81,67,30.00,29.92,18,2,18,1.03
2014-6-2,80.8,78.2,74.5,74.4,72.3,68.3,95,82,72,30.05,29.94,18,5,18,0.42
2014-6-3,81.5,77.8,73.8,69.1,67.0,61.7,82,69,56,30.02,29.93,16,3,16,0.00
2014-6-4,83.4,78.5,72.8,71.0,69.2,67.6,88,73,62,29.95,29.87,15,4,15,0.00
2014-6-5,85.6,79.2,70.6,70.9,68.2,65.2,93,70,53,29.94,29.84,16,3,18,0.00
2014-6-6,89.5,80.5,70.8,74.5,69.8,65.7,94,72,48,29.95,29.86,9,0,9,0.00
2014-6-7,80.1,79.2,78.3,74.5,74.3,73.9,88,85,82,29.95,29.91,2,0,2,0.00
2014-6-9,89.1,77.0,72.5,75.6,70.8,69.3,96,82,56,29.97,29.85,14,1,19,0.00
2014-6-10,90.0,78.1,73.2,76.7,72.5,66.3,94,84,53,30.00,29.92,17,0,17,0.23
2014-6-11,91.3,77.6,72.2,76.2,72.5,69.7,97,86,54,29.98,29.88,11,0,11,1.90
2014-6-12,89.8,77.1,71.8,73.7,70.9,66.7,96,83,49,30.01,29.90,16,1,16,0.57
2014-6-13,91.4,77.1,71.7,76.1,72.1,68.9,96,86,52,30.04,29.92,16,0,16,0.14
2014-6-14,88.9,79.3,71.6,77.5,73.5,70.6,97,83,61,30.06,29.95,16,0,16,0.01
2014-6-15,88.7,81.9,75.4,77.0,75.0,72.3,92,80,63,30.08,29.98,2,0,2,0.00
2014-6-16,85.7,80.8,76.1,76.8,72.6,64.6,95,77,53,30.11,30.01,0,0,0,0.00
2014-6-17,81.0,76.2,70.9,73.6,71.9,68.4,95,87,76,30.11,30.01,11,0,12,0.58
2014-6-18,83.8,75.7,71.2,76.3,72.6,68.8,96,90,70,30.07,30.00,8,0,8,0.17
2014-6-19,87.4,76.0,70.8,75.8,72.1,66.8,97,89,62,30.09,30.00,23,0,23,1.07
2014-6-20,88.0,76.9,71.2,75.3,71.8,69.4,98,85,58,30.04,29.97,4,0,4,0.02
2014-6-21,89.8,77.7,72.8,75.5,73.0,68.6,97,86,51,30.00,29.89,1,0,1,0.42
2014-6-22,91.7,79.7,74.2,76.5,73.2,68.3,96,82,51,29.97,29.86,0,0,0,0.04
2014-6-23,90.8,81.9,73.5,76.6,73.7,70.1,96,77,53,30.06,29.91,0,0,0,0.00
2014-6-24,91.5,82.9,75.5,76.7,73.6,68.4,93,75,49,30.10,30.03,0,0,0,0.00
2014-6-25,90.7,82.7,77.0,77.7,75.6,72.4,93,80,56,30.09,29.99,0,0,0,0.01
2014-6-26,90.2,82.1,75.0,77.2,74.7,72.7,95,79,59,30.07,29.93,0,0,0,0.00
2014-6-27,88.7,82.7,77.6,77.3,74.8,71.2,95,78,59,30.09,29.97,0,0,0,0.00
2014-6-28,90.2,82.7,75.4,76.2,73.4,69.9,94,75,54,30.10,30.01,0,0,0,0.00
2014-6-29,93.7,82.3,76.3,75.9,73.3,68.9,92,76,49,30.08,29.98,0,0,0,0.00
2014-6-30,89.4,80.9,74.4,77.0,74.2,72.4,95,81,62,30.01,29.86,0,0,0,0.00
2014-7-1,88.3,81.4,77.4,76.2,74.5,70.5,93,81,57,29.89,29.78,0,0,0,0.00
2014-7-2,91.4,79.1,73.7,76.8,74.6,71.5,96,87,61,29.96,29.81,27,0,31,1.28
2014-7-3,95.8,84.8,77.2,78.3,74.9,68.4,95,74,43,30.06,29.94,0,0,0,0.00
2014-7-4,91.7,80.9,73.0,79.8,74.4,68.8,93,82,56,30.09,30.02,0,0,0,0.44
2014-7-5,88.5,78.8,74.8,78.7,75.0,70.2,95,88,64,30.10,30.01,10,0,10,1.71
2014-7-6,84.9,78.2,74.3,77.6,74.8,71.9,97,90,77,30.06,29.97,0,0,1,0.46
2014-7-7,88.3,80.6,76.0,78.2,75.5,71.9,97,85,66,30.07,29.97,0,0,0,0.19
2014-7-8,91.3,80.3,75.2,78.6,75.5,72.6,97,86,58,30.11,30.01,0,0,0,0.24
2014-7-9,92.2,78.3,74.5,78.9,74.5,72.1,98,89,54,30.09,30.02,0,0,0,0.39
2014-7-10,88.1,76.6,74.6,77.8,74.2,70.7,97,92,64,30.09,30.01,0,0,0,0.11
2014-7-11,89.3,82.8,75.3,78.4,75.6,73.8,97,80,61,30.10,30.01,0,0,0,0.01
2014-7-12,89.3,83.1,76.2,77.6,75.2,72.1,93,78,61,30.09,30.01,0,0,0,0.09
2014-7-13,88.8,83.7,78.7,79.2,75.4,72.5,89,77,61,30.05,29.99,0,0,0,0.02
2014-7-14,90.5,83.2,78.3,78.3,75.1,68.5,94,77,63,30.06,29.97,0,0,0,0.00
2014-7-15,91.5,80.4,73.1,77.5,74.9,70.3,95,84,55,30.00,29.92,0,0,0,0.25
2014-7-16,91.2,79.7,75.1,77.5,74.7,69.6,94,85,59,29.98,29.90,0,0,0,0.22
2014-7-17,88.4,78.9,73.7,78.0,74.6,70.9,94,87,65,30.02,29.91,1,0,1,0.12
2014-7-18,91.6,82.9,76.1,78.0,75.6,71.6,95,80,53,30.05,29.95,0,0,0,0.00
2014-7-19,90.8,83.2,77.3,79.9,76.1,71.3,95,80,61,30.04,29.95,0,0,0,1.04
2014-7-20,91.3,84.1,77.4,78.9,76.0,73.6,95,77,60,30.01,29.93,0,0,0,0.00
2014-7-21,89.8,81.0,76.6,77.7,75.9,72.9,94,85,61,30.01,29.94,0,0,0,0.04
2014-7-22,90.4,80.7,76.1,78.3,76.1,73.1,95,87,64,30.03,29.93,1,0,1,0.53
2014-7-23,90.0,82.2,77.4,79.6,76.6,74.2,97,84,63,30.06,29.96,0,0,0,0.08
2014-7-24,90.3,82.4,75.3,78.3,76.0,72.1,96,82,64,30.04,29.94,0,0,1,1.37
2014-7-25,79.9,77.8,76.6,75.9,75.1,74.4,95,91,87,30.01,29.98,0,0,0,0.00
2014-7-26,89.2,82.7,78.7,78.9,76.7,74.8,95,83,67,30.08,29.99,0,0,0,0.01
2014-7-27,93.3,85.0,77.0,78.5,75.3,72.4,93,74,54,30.07,29.99,0,0,0,0.00
2014-7-28,95.5,86.7,79.5,78.5,74.9,66.8,94,71,40,30.04,29.94,0,0,0,0.00
2014-7-29,95.2,82.9,78.0,78.9,74.9,69.4,93,78,47,29.98,29.90,0,0,0,0.16
2014-7-30,93.3,81.4,73.8,79.3,76.1,70.8,95,85,57,29.95,29.88,1,0,1,0.34
2014-7-31,78.5,76.7,0.0,76.3,74.6,0.0,94,92,92,29.95,29.89,0,0,0,0.00
2014-8-1,91.1,85.6,77.6,79.3,76.0,73.8,95,74,60,29.96,29.87,0,0,0,0.00
2014-8-2,87.2,81.3,76.7,78.8,76.9,73.6,96,87,70,29.93,29.84,0,0,0,0.94
2014-8-3,88.3,80.3,72.2,79.0,76.7,70.1,96,89,70,29.91,29.82,0,0,0,0.80
2014-8-4,88.0,77.1,73.8,78.6,74.4,71.7,97,92,67,29.98,29.82,5,0,5,0.65
2014-8-5,91.0,81.9,75.0,78.0,74.8,71.5,96,80,55,30.03,29.92,11,0,11,0.07
2014-8-6,91.3,83.1,76.0,78.3,75.9,71.3,96,80,54,30.02,29.94,12,2,12,0.01
2014-8-7,93.1,83.5,72.6,78.5,75.4,70.0,94,78,54,29.98,29.88,11,2,22,0.00
2014-8-8,91.8,82.5,75.0,77.7,75.8,72.5,96,81,56,30.01,29.92,10,2,12,0.01
2014-8-9,95.1,82.4,78.3,77.9,75.8,70.3,95,82,46,30.03,29.95,5,1,15,0.00
2014-8-10,95.3,85.5,78.5,79.6,75.2,66.4,95,73,46,30.03,29.94,20,2,20,0.01
2014-8-11,88.6,84.8,81.6,75.8,72.2,70.9,74,66,63,29.99,29.93,11,2,11,0.01
2014-8-12,94.0,83.7,77.1,77.5,74.7,71.0,92,76,49,30.00,29.92,19,2,19,0.00
2014-8-13,93.4,83.9,77.2,77.5,75.4,73.1,95,77,53,29.99,29.91,8,2,27,0.00
2014-8-14,92.0,81.9,77.8,79.2,76.9,74.4,96,86,59,30.00,29.93,4,2,15,0.01
2014-8-15,90.5,77.2,73.7,78.3,74.5,70.9,95,92,63,30.02,29.92,6,1,14,0.04
2014-8-16,94.8,80.9,74.8,79.5,75.2,71.0,97,85,52,30.07,29.95,17,2,17,0.44
2014-8-17,90.6,82.5,76.7,80.4,76.5,70.8,97,83,64,30.06,29.99,13,2,13,0.01
2014-8-18,93.5,84.7,76.7,78.6,76.1,71.9,96,77,52,30.04,29.92,16,2,16,0.00
2014-8-19,92.5,85.5,78.6,78.7,76.0,70.5,94,75,53,30.00,29.91,13,2,13,0.00
2014-8-20,93.2,85.0,78.3,78.8,76.3,73.0,94,76,55,30.04,29.93,15,2,15,0.00
2014-8-21,90.3,83.7,78.8,79.3,76.9,73.0,95,81,63,30.07,29.98,14,2,14,0.02
2014-8-22,90.2,83.5,78.8,78.9,76.5,73.8,94,80,62,30.06,29.92,12,2,14,0.29
2014-8-23,90.3,83.9,77.8,78.7,76.0,72.7,96,78,58,29.95,29.81,15,3,15,0.03
2014-8-24,91.8,84.6,77.9,78.2,75.4,71.2,96,75,53,29.83,29.69,16,3,16,0.00
2014-8-25,88.9,83.0,78.1,79.5,77.2,74.1,94,83,68,29.75,29.67,23,5,23,0.19
2014-8-26,88.7,84.7,80.9,75.5,73.3,70.3,79,69,56,29.85,29.72,21,7,22,0.00
2014-8-27,89.3,83.0,76.4,75.2,73.2,69.7,89,73,57,29.94,29.82,18,4,18,0.00
2014-8-28,89.5,83.2,79.1,78.6,75.6,70.6,87,78,65,29.98,29.89,15,3,15,0.00
2014-8-29,92.4,84.4,78.3,79.9,76.5,70.9,94,78,54,30.06,29.93,15,3,16,0.18
2014-8-30,90.8,86.1,82.4,78.7,76.8,70.6,86,74,60,30.06,29.98,18,5,18,0.00
2014-8-31,90.5,84.1,76.1,77.8,75.3,69.5,92,76,60,30.07,29.99,19,4,19,0.04
2014-9-1,90.2,84.2,81.1,76.7,75.4,73.1,85,75,60,30.04,29.97,15,3,15,0.00
2014-9-2,90.1,84.1,77.6,77.2,74.3,70.7,90,73,55,30.04,29.93,19,4,19,0.00
2014-9-3,87.5,80.9,74.7,76.3,73.6,69.1,93,79,57,30.01,29.90,20,3,23,0.16
2014-9-4,90.3,81.6,75.2,77.2,74.6,70.8,94,80,56,30.07,29.96,12,2,17,0.08
2014-9-5,90.3,83.5,77.8,79.0,76.9,74.4,95,81,65,30.07,29.96,17,3,17,0.00
2014-9-6,85.2,80.6,77.1,79.3,76.9,74.1,95,89,75,30.01,29.90,14,2,15,0.19
2014-9-7,88.4,81.4,77.5,78.1,75.2,71.9,94,82,62,29.99,29.90,15,2,17,0.05
2014-9-8,89.8,82.4,73.8,77.8,74.1,69.7,95,77,56,30.01,29.92,14,4,18,0.12
2014-9-9,88.9,84.7,76.9,76.1,73.8,70.4,89,70,61,30.00,29.92,11,1,13,0.00
2014-9-10,87.7,87.7,87.7,73.6,73.6,73.6,63,63,63,29.96,29.89,0,0,0,0.00
2014-9-11,87.7,87.7,87.7,73.6,73.6,73.6,63,63,63,29.97,29.89,0,0,0,0.00
2014-9-12,87.7,87.7,87.7,73.6,73.6,73.6,63,63,63,29.97,29.85,0,0,0,0.00
2014-9-13,87.7,87.7,87.7,73.6,73.6,73.6,63,63,63,30.05,29.92,0,0,0,0.00
2014-9-14,87.7,87.7,87.7,73.6,73.6,73.6,63,63,63,30.10,29.98,0,0,0,0.00
2014-9-15,87.7,87.7,87.7,73.6,73.6,73.6,63,63,63,30.10,30.02,0,0,0,0.00
2014-9-16,87.7,87.7,87.7,73.6,73.6,73.6,63,63,63,30.07,29.92,0,0,0,0.00
2014-9-17,87.7,87.7,87.7,73.6,73.6,73.6,63,63,63,29.97,29.82,0,0,0,0.00
2014-9-18,87.7,87.7,87.7,73.6,73.6,73.6,63,63,63,29.90,29.81,0,0,0,0.00
2014-9-19,87.7,87.7,87.7,73.6,73.6,73.6,63,63,63,29.92,29.83,0,0,0,0.00
2014-9-20,87.7,87.7,87.7,73.6,73.6,73.6,63,63,63,29.92,29.80,0,0,0,0.00
2014-9-21,87.7,87.7,87.7,73.6,73.6,73.6,63,63,63,30.00,29.87,0,0,0,0.00
2014-9-22,87.7,87.7,87.7,73.6,73.6,73.6,63,63,63,30.00,29.89,0,0,0,0.00
2014-9-23,87.7,87.7,87.7,73.6,73.6,73.6,63,63,63,29.99,29.88,0,0,0,0.00
2014-9-24,87.7,87.7,87.7,73.6,73.6,73.6,63,63,63,30.00,29.91,0,0,0,0.00
2014-9-25,87.7,87.7,87.7,73.6,73.6,73.6,63,63,63,30.02,29.91,0,0,0,0.00
2014-9-26,87.7,87.7,87.7,73.6,73.6,73.6,63,63,63,29.95,29.86,0,0,0,0.00
2014-9-27,87.7,87.7,87.7,73.6,73.6,73.6,63,63,63,29.94,29.86,0,0,0,0.00
2014-9-28,87.7,87.7,87.7,73.6,73.6,73.6,63,63,63,29.94,29.85,0,0,0,0.00
2014-9-29,87.7,87.7,87.7,73.6,73.6,73.6,63,63,63,29.90,29.76,0,0,0,0.00
2014-9-30,87.7,87.7,87.7,73.6,73.6,73.6,63,63,63,29.83,29.75,0,0,0,0.00
2014-10-1,87.7,87.7,87.7,73.6,73.6,73.6,63,63,63,29.93,29.80,0,0,0,0.00
2014-10-2,87.7,86.9,81.2,77.4,74.1,73.6,86,66,63,29.99,29.88,10,0,11,0.00
2014-10-3,92.2,82.6,76.2,78.6,76.0,72.6,95,82,55,29.99,29.87,17,2,18,0.50
2014-10-4,90.2,79.8,74.8,78.2,75.0,71.7,97,86,57,29.94,29.76,22,3,22,1.65
2014-10-5,85.0,75.5,68.5,72.8,65.5,60.2,90,72,46,29.95,29.84,13,4,15,0.00
2014-10-6,83.0,77.4,70.8,71.6,69.1,66.8,90,76,64,30.02,29.91,18,4,19,0.00
2014-10-7,84.2,78.6,75.8,75.3,72.8,70.9,91,83,67,30.04,29.94,9,1,14,0.00
2014-10-8,85.6,80.5,75.0,77.0,74.1,71.7,95,81,69,30.06,29.96,16,3,18,0.00
2014-10-9,86.0,81.2,75.1,74.8,72.3,69.7,89,75,59,30.01,29.93,18,5,18,0.00
2014-10-10,86.3,81.2,75.6,74.2,71.6,66.5,88,73,55,29.99,29.90,21,5,21,0.00
2014-10-11,86.5,81.7,77.0,73.3,71.5,66.2,84,72,53,29.97,29.90,15,4,15,0.00
2014-10-12,86.9,80.7,74.9,75.5,73.4,71.6,92,79,67,30.01,29.93,16,4,16,0.00
2014-10-13,86.3,82.6,79.6,76.1,73.2,71.2,80,73,64,30.02,29.95,19,6,19,0.00
2014-10-14,88.0,83.0,74.3,76.9,75.2,71.4,92,78,67,29.98,29.87,18,5,18,0.33
2014-10-15,89.8,79.4,74.1,78.5,75.0,71.6,97,87,61,29.95,29.84,15,2,15,0.64
2014-10-16,83.6,76.5,70.9,75.4,66.7,60.7,95,73,53,29.92,29.81,16,4,16,0.00
2014-10-17,82.7,73.9,67.2,66.5,61.5,55.3,89,67,41,29.94,29.85,12,2,12,0.00
2014-10-18,87.0,75.3,66.9,69.2,65.8,62.6,96,75,45,29.94,29.84,10,1,10,0.00
2014-10-19,84.5,76.0,68.1,69.3,67.0,63.7,95,75,52,29.97,29.89,13,2,14,0.00
2014-10-20,86.0,78.0,70.2,72.5,68.8,63.1,95,75,48,29.98,29.88,18,2,18,0.01
2014-10-21,82.8,76.5,72.6,74.7,71.9,68.5,95,86,71,29.92,29.84,21,3,21,0.08
2014-10-22,82.9,77.1,72.2,73.5,71.8,70.3,96,84,69,29.92,29.84,8,1,8,0.00
2014-10-23,78.0,75.4,73.1,73.4,70.7,67.2,96,86,71,29.90,29.83,18,5,18,0.57
2014-10-24,79.8,77.7,73.0,70.6,69.5,67.5,83,76,71,29.87,29.76,23,8,23,0.00
2014-10-25,81.5,74.4,67.9,67.5,64.8,60.5,86,73,51,29.89,29.80,16,5,18,0.00
2014-10-26,81.4,73.8,67.2,66.2,63.2,57.2,89,71,44,29.98,29.84,6,3,17,0.00
2014-10-27,81.2,73.3,64.7,67.6,64.9,62.1,92,76,57,30.04,29.94,7,2,15,0.00
2014-10-28,83.5,75.8,67.2,70.7,67.6,65.4,95,77,58,30.09,30.01,8,3,16,0.00
2014-10-29,85.4,78.8,71.7,70.9,67.7,64.8,90,70,51,30.05,29.93,5,2,12,0.00
2014-10-30,83.1,76.3,69.5,70.7,67.6,63.6,96,76,53,29.94,29.81,4,2,12,0.00
2014-10-31,84.0,73.0,65.3,70.9,63.9,54.9,94,74,55,29.85,29.70,11,3,18,0.13
2014-11-1,75.5,65.0,55.8,60.2,52.4,38.7,94,66,41,30.09,29.84,22,5,23,0.00
2014-11-2,68.7,59.6,52.7,52.5,44.0,38.5,74,58,35,30.21,30.09,19,6,19,0.00
2014-11-3,74.9,67.6,57.4,59.5,54.3,46.1,76,63,51,30.24,30.16,22,7,22,0.00
2014-11-4,72.4,72.2,71.8,60.4,58.0,54.7,66,61,54,30.19,30.15,12,4,12,0.00
2014-11-5,79.3,76.6,74.2,69.4,66.1,63.1,85,70,63,30.14,30.02,13,8,26,0.05
2014-11-6,81.5,75.1,67.3,68.1,64.4,59.9,92,71,49,30.07,29.92,7,3,15,0.00
2014-11-7,81.0,75.0,66.1,67.9,66.0,61.6,94,75,55,29.94,29.84,14,3,14,0.00
2014-11-8,83.7,74.9,66.3,69.1,67.1,64.7,95,78,54,29.89,29.77,13,2,13,0.01
2014-11-9,71.4,68.3,65.9,69.3,66.8,64.2,96,95,89,29.85,29.77,14,2,14,0.87
2014-11-10,75.4,68.3,64.8,67.0,65.1,63.6,97,90,72,29.90,29.81,15,3,15,0.38
2014-11-11,79.1,69.4,60.5,64.1,60.9,55.7,97,77,48,29.90,29.81,18,3,18,0.00
2014-11-12,80.8,71.2,61.0,67.1,62.9,58.7,93,76,57,29.97,29.88,17,3,17,0.00
2014-11-13,82.9,73.7,65.8,68.9,66.0,62.0,95,79,50,29.99,29.88,9,2,11,0.00
2014-11-14,80.4,70.7,63.5,67.7,62.9,53.2,97,79,40,30.05,29.91,11,3,11,0.00
2014-11-15,79.3,71.3,63.6,68.2,64.8,61.5,93,81,65,30.14,30.02,14,4,14,0.00
2014-11-16,82.5,75.5,68.0,72.6,68.9,65.0,93,80,66,30.13,29.99,16,3,16,0.00
2014-11-17,87.7,79.7,73.8,76.6,73.5,71.1,96,82,63,29.99,29.86,18,4,18,0.05
2014-11-18,75.0,66.4,56.2,71.6,63.1,53.0,95,89,77,30.16,29.91,21,5,21,0.12
2014-11-19,65.3,59.6,54.2,61.2,56.1,52.1,95,88,83,30.20,30.10,16,5,17,0.17
2014-11-20,75.7,69.0,60.4,64.3,61.0,57.5,91,77,64,30.14,30.04,21,6,23,0.00
2014-11-21,74.2,71.5,68.7,67.8,66.4,63.5,95,84,72,30.15,30.05,23,8,23,0.09
2014-11-22,79.1,76.0,73.9,73.0,70.2,67.4,93,82,75,30.15,30.00,22,9,23,0.31
2014-11-23,82.5,79.1,76.6,75.7,73.9,72.3,89,84,77,30.01,29.86,22,6,23,0.02
2014-11-24,87.5,80.9,75.5,77.9,76.0,74.0,96,86,70,29.99,29.88,14,3,14,0.00
2014-11-25,84.5,80.3,78.1,76.5,74.9,73.2,94,84,71,29.99,29.86,22,5,23,0.00
2014-11-26,80.2,69.2,57.8,76.2,64.2,49.0,95,84,65,30.14,29.85,22,6,22,0.76
2014-11-27,71.7,62.2,55.4,57.2,49.3,39.9,89,65,38,30.23,30.08,22,5,22,0.00
2014-11-28,68.3,59.9,52.2,54.9,50.5,45.3,84,71,59,30.20,30.10,19,7,19,0.00
2014-11-29,73.8,64.8,54.6,59.1,55.2,51.2,91,72,54,30.21,30.12,19,5,20,0.00
2014-11-30,76.2,72.3,67.1,64.4,59.3,55.0,73,64,50,30.24,30.15,23,7,23,0.00
2014-12-1,79.0,73.7,69.5,68.7,66.4,63.8,93,78,66,30.22,30.11,25,7,27,0.07
2014-12-2,77.0,74.3,68.6,70.3,68.1,66.4,95,81,73,30.12,30.03,20,6,20,0.36
2014-12-3,79.5,74.6,69.6,68.9,67.6,64.8,93,79,63,30.10,30.00,20,6,21,0.00
2014-12-4,79.6,75.5,70.4,70.6,69.1,66.9,91,81,71,30.11,30.01,21,7,23,0.20
2014-12-5,79.6,75.0,70.7,71.5,70.0,67.8,95,85,72,30.16,30.05,17,5,22,0.20
2014-12-6,78.5,72.7,66.6,69.7,66.2,64.2,96,81,64,30.15,30.03,14,3,15,0.01
2014-12-7,75.0,68.5,64.5,68.7,65.0,61.4,97,89,77,30.04,29.95,15,3,15,0.00
2014-12-8,64.4,61.2,58.5,62.0,59.6,57.0,97,94,91,30.04,29.97,10,3,10,0.00
2014-12-9,66.3,59.7,55.4,61.9,56.0,50.9,97,88,75,30.00,29.92,11,4,20,0.00
2014-12-10,63.6,56.3,49.4,51.6,44.0,37.3,90,65,40,30.11,29.99,20,4,22,0.00
2014-12-11,68.3,57.9,48.1,56.0,51.6,45.5,96,81,58,30.17,30.05,13,2,13,0.00
2014-12-12,65.9,59.0,52.5,55.0,49.7,40.8,94,73,40,30.20,30.08,11,3,12,0.00
2014-12-13,73.7,62.6,54.5,58.0,52.8,48.5,88,72,43,30.10,29.99,13,4,14,0.00
2014-12-14,73.9,63.3,55.8,58.8,51.1,45.7,85,66,48,30.06,29.96,12,2,12,0.00
2014-12-15,77.6,64.5,54.3,60.3,53.7,49.5,93,71,42,30.08,29.99,9,1,9,0.00
2014-12-16,77.8,65.1,56.1,58.7,56.2,53.0,93,75,49,30.16,30.06,11,2,11,0.00
2014-12-17,79.1,66.4,54.2,62.8,57.4,52.3,96,75,50,30.17,30.03,10,1,10,0.00
2014-12-18,76.0,65.8,58.4,62.4,58.9,54.9,96,79,58,30.13,30.01,13,2,13,0.00
2014-12-19,76.0,65.9,56.6,64.6,58.5,53.6,95,78,62,30.07,29.96,11,2,11,0.00
2014-12-20,78.2,67.7,58.1,64.7,61.5,56.9,97,82,60,30.06,29.97,5,1,13,0.00
2014-12-21,80.5,70.4,61.6,68.8,64.5,60.5,97,83,63,30.06,29.96,7,2,16,0.00
2014-12-22,83.3,75.8,65.1,71.4,69.8,63.8,96,82,59,29.99,29.88,10,3,17,0.00
2014-12-23,82.5,74.8,66.3,72.9,69.7,65.1,98,85,68,29.93,29.85,20,4,20,0.00
2014-12-24,78.8,77.6,74.7,73.5,72.7,70.9,89,85,83,29.90,29.84,13,5,13,0.00
2014-12-25,78.7,74.4,67.6,73.5,69.6,54.9,95,85,59,30.12,29.90,10,5,18,0.91
2014-12-26,73.9,71.7,64.8,72.2,69.8,60.1,97,94,80,30.14,30.07,10,2,11,0.26
2014-12-27,81.3,73.6,67.9,74.0,70.0,67.0,98,89,67,30.19,30.09,11,1,11,0.04
2014-12-28,82.2,73.0,64.8,72.1,68.5,63.6,98,86,68,30.13,30.03,13,2,13,0.00
2014-12-29,83.0,75.0,68.4,74.4,69.8,66.9,98,85,66,30.09,30.00,16,3,16,0.02
2014-12-30,83.0,74.7,69.0,71.4,69.4,66.8,97,84,60,30.15,30.03,10,1,10,0.00
2014-12-31,78.8,72.6,70.4,71.3,70.0,68.8,96,92,75,30.17,30.07,13,3,13,0.01
2015-1-1,77.1,72.5,70.7,72.1,70.4,69.5,97,93,80,30.16,30.07,11,2,11,0.01
2015-1-2,81.0,75.7,70.1,74.3,71.6,69.2,98,88,74,30.19,30.10,16,3,16,0.02